Location: Newark
(46.7636°N, 1.8358°W)
Time: 16:01:30
(UTC+00:00)

Vanguard 1 Rocket - Pass Details

Date: 24 October 2019
Orbit: 651 x 4225 km, 34.3° (Epoch: 16 November)

Event Time Altitude Azimuth Distance (km) Brightness Sun altitude
Rises 15:35:20 0° 279° (W) 7,143 12.7 13.1°
Reaches altitude 10° 15:40:14 10° 271° (W) 6,523 12.9 12.4°
Maximum altitude 15:59:31 36° 216° (SW) 5,500 12.4 9.5°
Drops below altitude 10° 16:20:32 10° 160° (SSE) 6,992 12.0 6.3°
Sets 16:26:12 0° 152° (SSE) 7,675 12.1 5.4°
